Hourly Data Report for May 15, 2012

All times are specified in Local Standard Time (LST). Add 1 hour to adjust for Daylight Saving Time where and when it is observed.

LONDON A
ONTARIO

43°01'59.000" N
81°09'04.000" W
278.00 m
6144473
71623
YXU

Download Data

Hourly Data (May 2012)
Hourly Data Report for May 15, 2012
Temp Definition
°C
Dew Point Temp Definition
°C
Rel Hum Definition
%
Wind Dir Definition
10's deg

Wind Spd Definition
km/h
Visibility Definition
km
Stn Press Definition
kPa
Hmdx Definition


Wind Chill Definition


Weather Definition


TIME
00:00 Legend Double Dagger 9.2 5.0 75   0 10.0 98.36     LegendNANA
01:00 Legend Double Dagger 8.1 5.4 83   0 10.0 98.34     Clear
02:00 Legend Double Dagger 8.4 5.0 79 7 6 10.0 98.29     LegendNANA
03:00 Legend Double Dagger 6.6 4.9 89   0 10.0 98.26     LegendNANA
04:00 Legend Double Dagger 5.8 4.1 89   0 10.0 98.25     Mainly Clear
05:00 Legend Double Dagger 5.4 4.1 91   0 10.0 98.24     LegendNANA
06:00 Legend Double Dagger 6.7 5.7 93   0 10.0 98.27     LegendNANA
07:00 Legend Double Dagger 11.4 7.0 74   0 10.0 98.29     Clear
08:00 Legend Double Dagger 16.8 5.5 47 19 8 10.0 98.30     LegendNANA
09:00 Legend Double Dagger 19.6 4.3 36 22 12 10.0 98.29     LegendNANA
10:00 Legend Double Dagger 21.4 6.7 38 20 15 10.0 98.28     Mainly Clear
11:00 Legend Double Dagger 22.5 6.5 35 21 18 10.0 98.25     LegendNANA
12:00 Legend Double Dagger 23.5 6.5 33 24 14 10.0 98.18     LegendNANA
13:00 Legend Double Dagger 23.4 6.4 33 19 27 10.0 98.12     Cloudy
14:00 Legend Double Dagger 23.4 7.3 35 20 21 10.0 98.05     LegendNANA
15:00 Legend Double Dagger 23.2 7.1 35 18 23 10.0 98.00     LegendNANA
16:00 Legend Double Dagger 22.9 6.4 34 18 28 10.0 97.97     Mainly Clear
17:00 Legend Double Dagger 22.4 6.8 36 20 26 10.0 97.93     LegendNANA
18:00 Legend Double Dagger 21.2 5.3 35 19 25 10.0 97.90     LegendNANA
19:00 Legend Double Dagger 19.6 5.4 39 19 22 10.0 97.89     Mainly Clear
20:00 Legend Double Dagger 17.9 6.2 46 19 16 10.0 97.85     LegendNANA
21:00 Legend Double Dagger 16.2 7.0 54 17 10 10.0 97.84     LegendNANA
22:00 Legend Double Dagger 15.4 7.5 59 15 5 10.0 97.80     Mainly Clear
23:00 Legend Double Dagger 14.7 7.8 63 18 8 10.0 97.79     LegendNANA

Notes on Data Quality.

Legend

  • E = Estimated
  • M = Missing
  • NA = Not Available
  • ‡ = Partner data that is not subject to review by the National Climate Archives
Date modified: